Date Time,Air Temp,Sky Temp,Clarity,Light Level,Rain Sensor,Readings
2010-08-01 00:00:11,25.2,-6.6,31.8,0.0,2.3,112
2010-08-01 00:05:11,25.3,-6.7,32.0,0.0,2.3,112
2010-08-01 00:10:11,25.2,-6.7,32.0,0.0,2.3,112
2010-08-01 00:15:11,25.2,-6.7,31.9,0.0,2.3,111
2010-08-01 00:20:11,25.1,-6.8,31.9,0.0,2.3,112
2010-08-01 00:25:11,25.1,-7.3,32.4,0.0,2.3,111
2010-08-01 00:30:11,25.1,-7.6,32.7,0.0,2.3,111
2010-08-01 00:35:11,25.0,-7.8,32.7,0.0,2.3,112
2010-08-01 00:40:11,24.9,-7.9,32.8,0.0,2.3,111
2010-08-01 00:45:11,25.0,-7.8,32.8,0.0,2.3,112
2010-08-01 00:50:11,24.9,-7.7,32.7,0.0,2.3,111
2010-08-01 00:55:11,24.9,-7.6,32.5,0.0,2.3,112
2010-08-01 01:00:11,24.9,-7.0,31.9,0.0,2.3,111
2010-08-01 01:05:11,24.9,-7.0,31.9,0.0,2.3,112
2010-08-01 01:10:11,24.9,-7.3,32.2,0.0,2.3,111
2010-08-01 01:15:11,24.8,-7.3,32.1,0.0,2.3,112
2010-08-01 01:20:11,24.8,-6.8,31.5,0.0,2.3,112
2010-08-01 01:25:11,24.8,-6.5,31.4,0.0,2.3,112
2010-08-01 01:30:11,24.9,-6.8,31.7,0.0,2.3,112
2010-08-01 01:35:11,24.9,-6.7,31.6,0.0,2.3,111
2010-08-01 01:40:11,24.9,-6.5,31.4,0.0,2.3,112
2010-08-01 01:45:11,24.9,-6.2,31.1,0.0,2.3,112
2010-08-01 01:50:11,25.0,-6.3,31.3,0.0,2.3,112
2010-08-01 01:55:11,25.0,-6.5,31.5,0.0,2.3,111
2010-08-01 02:00:11,25.0,-6.2,31.2,0.0,2.3,112
2010-08-01 02:05:11,24.6,-5.9,30.5,0.0,2.3,111
2010-08-01 02:10:11,24.6,-5.4,30.0,0.1,2.3,112
2010-08-01 02:15:11,25.1,-3.4,28.5,0.1,2.3,112
2010-08-01 02:20:11,25.1,2.8,22.4,0.1,2.3,111
2010-08-01 02:25:11,22.8,6.2,16.7,0.1,2.3,111
2010-08-01 02:30:11,21.2,6.3,14.9,0.1,2.3,112
2010-08-01 02:35:11,20.7,6.6,14.1,0.1,2.3,112
2010-08-01 02:40:11,20.5,6.4,14.1,0.1,2.3,111
2010-08-01 02:45:11,20.4,6.4,14.0,0.1,2.3,111
2010-08-01 02:50:11,20.4,7.0,13.4,0.1,2.3,111
2010-08-01 02:55:11,20.5,7.0,13.5,0.1,2.3,112
2010-08-01 03:00:11,20.5,6.8,13.7,0.1,2.3,111
2010-08-01 03:05:11,20.4,6.3,14.1,0.1,2.3,112
2010-08-01 03:10:11,20.4,6.6,13.8,0.1,2.3,111
2010-08-01 03:15:11,20.4,7.5,12.9,0.1,2.3,111
2010-08-01 03:20:11,20.4,8.3,12.0,0.1,2.3,112
2010-08-01 03:25:11,20.4,8.7,11.7,0.1,2.3,111
2010-08-01 03:30:11,20.5,8.8,11.8,0.1,2.3,112
2010-08-01 03:35:11,20.6,8.3,12.3,0.1,2.3,111
2010-08-01 03:40:11,20.5,8.5,12.0,0.1,2.3,111
2010-08-01 03:45:11,20.5,7.7,12.7,0.1,2.3,112
2010-08-01 03:50:11,20.4,7.2,13.2,0.1,2.3,111
2010-08-01 03:55:11,20.5,8.1,12.3,0.2,2.3,111
2010-08-01 04:00:11,20.1,7.8,12.4,0.2,2.3,112
2010-08-01 04:05:11,20.5,7.9,12.6,0.2,2.3,111
2010-08-01 04:10:11,20.5,7.9,12.6,0.2,2.3,112
2010-08-01 04:15:11,20.5,8.1,12.4,0.3,2.3,111
2010-08-01 04:20:11,20.5,7.4,13.2,0.3,2.3,112
2010-08-01 04:25:11,20.6,6.5,14.0,0.4,2.3,111
2010-08-01 04:30:11,20.6,7.2,13.3,0.6,2.3,112
2010-08-01 04:35:11,20.5,6.6,14.0,0.9,2.3,111
2010-08-01 04:40:11,20.5,7.8,12.7,1.4,2.3,111
2010-08-01 04:45:11,20.5,8.0,12.5,2.1,2.3,112
2010-08-01 04:50:11,20.6,7.6,13.0,3.7,2.3,111
2010-08-01 04:55:11,20.6,7.3,13.2,6.5,2.3,112
2010-08-01 05:00:11,20.6,7.5,13.1,10.1,2.3,111
2010-08-01 05:05:11,20.6,8.3,12.3,14.1,2.3,112
2010-08-01 05:10:11,20.6,7.8,12.8,19.2,2.3,111
2010-08-01 05:15:11,20.7,6.4,14.3,23.6,2.3,111
2010-08-01 05:20:11,20.6,6.8,13.9,26.3,2.3,112
2010-08-01 05:25:11,20.6,7.8,12.8,27.9,2.3,111
2010-08-01 05:30:11,20.7,7.5,13.1,28.9,2.3,112
2010-08-01 05:35:11,20.6,7.9,12.7,29.5,2.3,112
2010-08-01 05:40:11,20.6,8.1,12.5,30.1,2.3,111
2010-08-01 05:45:11,20.6,7.8,12.8,30.7,2.3,111
2010-08-01 05:50:11,20.6,7.2,13.4,31.3,2.3,112
2010-08-01 05:55:11,20.6,7.1,13.6,31.6,2.3,111
2010-08-01 06:00:11,20.7,6.5,14.1,31.8,2.3,112
2010-08-01 06:05:11,20.7,7.0,13.8,31.9,2.3,111
2010-08-01 06:10:11,20.8,7.2,13.6,32.0,2.3,111
2010-08-01 06:15:11,20.8,7.2,13.6,32.0,2.3,111
2010-08-01 06:20:11,20.9,7.4,13.5,32.1,2.3,112
2010-08-01 06:25:11,20.9,7.3,13.6,32.1,2.3,111
2010-08-01 06:30:11,21.0,7.4,13.6,32.1,2.3,111
2010-08-01 06:35:11,21.0,7.5,13.5,32.2,2.3,111
2010-08-01 06:40:11,21.1,7.4,13.7,32.3,2.3,112
2010-08-01 06:45:11,21.2,7.8,13.4,32.3,2.3,111
2010-08-01 06:50:11,21.2,7.9,13.4,32.3,2.2,112
2010-08-01 06:55:11,21.3,8.0,13.3,32.3,2.2,111
2010-08-01 07:00:11,21.0,7.8,13.2,32.3,2.3,111
2010-08-01 07:05:11,21.5,7.9,13.6,32.3,2.3,111
2010-08-01 07:10:11,21.5,7.7,13.8,32.4,2.3,112
2010-08-01 07:15:11,21.6,7.6,14.0,32.4,2.3,112
2010-08-01 07:20:11,21.8,6.9,14.9,32.4,2.3,110
2010-08-01 07:25:11,21.9,6.9,15.0,32.5,2.3,112
2010-08-01 07:30:11,22.1,6.8,15.3,32.4,2.3,111
2010-08-01 07:35:11,22.2,7.0,15.1,32.5,2.3,111
2010-08-01 07:40:11,22.3,8.0,14.3,32.5,2.3,112
2010-08-01 07:45:11,22.4,7.5,14.9,32.5,2.3,111
2010-08-01 07:50:11,22.5,6.7,15.8,32.5,2.3,112
2010-08-01 07:55:11,22.5,6.7,15.9,32.5,2.3,111
2010-08-01 08:00:11,22.7,5.8,16.8,32.5,2.3,112
2010-08-01 08:05:11,22.8,3.7,19.0,32.5,2.3,111
2010-08-01 08:10:11,25.1,2.5,22.6,32.5,2.3,111
2010-08-01 08:15:11,27.0,2.2,24.8,32.4,1.7,111
2010-08-01 08:20:11,27.5,0.1,27.4,32.5,1.3,112
2010-08-01 08:25:11,27.8,-0.6,28.4,32.5,1.1,112
2010-08-01 08:30:11,28.1,-2.0,30.1,32.5,1.2,112
2010-08-01 08:35:11,28.3,-1.5,29.8,32.5,1.3,111
2010-08-01 08:40:11,28.4,2.5,26.0,32.5,1.5,111
2010-08-01 08:45:11,28.7,6.5,22.1,32.5,1.6,112
2010-08-01 08:50:11,29.1,8.6,20.5,32.5,1.9,111
2010-08-01 08:55:11,26.8,10.3,16.5,32.5,1.6,112
2010-08-01 09:00:11,25.3,7.7,17.7,32.5,1.2,111
2010-08-01 09:05:11,25.1,5.6,19.5,32.5,1.0,112
2010-08-01 09:10:11,27.9,3.5,24.4,32.5,1.5,111
2010-08-01 09:15:11,29.5,4.5,24.9,32.5,2.0,111
2010-08-01 09:20:11,30.1,3.5,26.6,32.5,2.3,112
2010-08-01 09:25:11,30.7,7.0,23.6,32.6,2.3,111
2010-08-01 09:30:11,31.5,8.3,23.1,32.6,2.6,112
2010-08-01 09:35:11,31.7,8.1,23.6,32.6,2.4,111
2010-08-01 09:40:11,31.9,9.6,22.3,32.6,2.3,112
2010-08-01 09:45:11,32.3,9.5,22.8,32.6,2.3,112
2010-08-01 09:50:11,32.1,8.5,23.6,32.6,2.3,111
2010-08-01 09:55:11,31.8,9.9,21.8,32.6,2.3,112
2010-08-01 10:00:11,31.8,10.3,21.5,32.6,2.3,111
2010-08-01 10:05:11,31.6,9.6,22.0,32.6,2.3,112
2010-08-01 10:10:11,31.3,9.9,21.4,32.6,2.3,111
2010-08-01 10:15:11,31.3,9.6,21.7,32.6,2.3,112
2010-08-01 10:20:11,31.6,9.5,22.1,32.6,2.3,111
2010-08-01 10:25:11,31.9,9.6,22.3,32.6,2.3,112
2010-08-01 10:30:11,32.1,9.1,23.0,32.6,2.3,111
2010-08-01 10:35:11,31.9,8.1,23.8,32.6,2.3,112
2010-08-01 10:40:11,31.9,8.6,23.3,32.6,2.3,112
2010-08-01 10:45:11,32.2,9.8,22.4,32.6,2.3,111
2010-08-01 10:50:11,32.3,10.0,22.3,32.5,2.3,111
2010-08-01 10:55:11,31.5,10.3,21.2,32.5,2.3,112
2010-08-01 11:00:11,30.9,9.6,21.4,32.5,2.3,112
2010-08-01 11:05:11,30.8,9.1,21.7,32.6,2.4,111
2010-08-01 11:10:11,31.1,7.1,24.0,32.6,2.3,112
2010-08-01 11:15:11,31.6,9.8,21.8,32.6,2.3,111
2010-08-01 11:20:11,32.0,10.1,21.9,32.6,2.3,111
2010-08-01 11:25:11,32.1,9.6,22.4,32.6,2.3,112
2010-08-01 11:30:11,31.9,9.7,22.3,32.6,2.3,111
2010-08-01 11:35:11,31.9,9.5,22.4,32.6,2.3,112
2010-08-01 11:40:11,31.8,9.7,22.1,32.6,2.3,112
2010-08-01 11:45:11,31.7,9.4,22.3,32.6,2.3,111
2010-08-01 11:50:11,31.7,9.1,22.6,32.6,2.3,112
2010-08-01 11:55:11,31.6,9.9,21.6,32.6,2.3,111
2010-08-01 12:00:11,31.6,10.0,21.6,32.6,2.3,112
2010-08-01 12:05:11,31.6,9.1,22.6,32.6,2.3,111
2010-08-01 12:10:11,31.8,8.7,23.1,32.6,2.3,112
2010-08-01 12:15:11,32.1,10.9,21.1,32.6,2.3,111
2010-08-01 12:20:11,32.2,10.1,22.1,32.6,2.3,112
2010-08-01 12:25:11,31.8,10.2,21.6,32.6,2.3,111
2010-08-01 12:30:11,31.6,10.4,21.2,32.6,2.3,112
2010-08-01 12:35:11,31.7,9.3,22.4,32.6,2.3,111
2010-08-01 12:40:11,32.0,8.1,23.9,32.6,2.3,111
2010-08-01 12:45:11,32.2,6.2,25.9,32.6,2.3,112
2010-08-01 12:50:11,32.4,8.0,24.4,32.6,2.3,112
2010-08-01 12:55:11,32.4,8.5,23.9,32.6,2.3,111
2010-08-01 13:00:11,32.3,6.9,25.4,32.6,2.3,111
2010-08-01 13:05:11,32.6,4.7,27.9,32.6,2.3,112
2010-08-01 13:10:11,33.1,3.4,29.6,32.6,2.3,111
2010-08-01 13:15:11,33.8,6.7,27.1,32.6,2.4,112
2010-08-01 13:20:11,35.4,8.6,26.8,32.6,2.4,111
2010-08-01 13:25:11,35.4,10.6,24.9,32.6,2.3,111
2010-08-01 13:30:11,34.3,11.4,22.9,32.5,2.3,112
2010-08-01 13:35:11,33.3,10.8,22.6,32.5,2.3,111
2010-08-01 13:40:11,32.6,11.0,21.6,32.5,2.3,112
2010-08-01 13:45:11,32.0,10.9,21.1,32.5,2.3,111
2010-08-01 13:50:11,30.5,11.6,18.9,32.5,2.3,112
2010-08-01 13:55:11,27.5,11.7,15.8,32.5,2.7,111
2010-08-01 14:00:11,26.5,12.1,14.3,32.5,2.4,111
2010-08-01 14:05:11,26.0,12.3,13.7,32.5,2.2,112
2010-08-01 14:10:11,25.9,12.6,13.3,32.5,2.1,112
2010-08-01 14:15:11,25.8,12.8,13.1,32.5,2.1,111
2010-08-01 14:20:11,25.8,12.1,13.7,32.4,2.1,112
2010-08-01 14:25:11,25.7,12.5,13.2,32.4,1.8,111
2010-08-01 14:30:11,25.6,12.2,13.3,32.5,1.8,111
2010-08-01 14:35:11,25.4,11.8,13.6,32.5,1.7,111
2010-08-01 14:40:11,25.5,11.4,14.0,32.5,1.6,112
2010-08-01 14:45:11,25.7,11.2,14.5,32.6,1.6,111
2010-08-01 14:50:11,26.2,11.3,14.9,32.6,1.8,111
2010-08-01 14:55:11,26.9,11.0,16.0,32.6,2.2,112
2010-08-01 15:00:11,28.5,9.5,19.0,32.6,2.5,111
2010-08-01 15:05:11,29.0,11.5,17.5,32.6,2.7,112
2010-08-01 15:10:11,28.4,10.7,17.7,32.6,2.7,111
2010-08-01 15:15:11,28.4,10.7,17.6,32.6,2.7,111
2010-08-01 15:20:11,28.8,10.2,18.6,32.6,2.8,112
2010-08-01 15:25:11,28.5,10.7,17.8,32.6,2.7,111
2010-08-01 15:30:11,27.8,12.0,15.8,32.5,2.6,112
2010-08-01 15:35:11,27.3,11.6,15.7,32.5,2.5,111
2010-08-01 15:40:11,27.1,11.6,15.4,32.6,2.4,111
2010-08-01 15:45:11,27.1,9.3,17.8,32.6,2.4,112
2010-08-01 15:50:11,27.0,8.7,18.3,32.6,2.4,111
2010-08-01 15:55:11,27.1,8.4,18.7,32.6,2.4,111
2010-08-01 16:00:11,28.3,8.6,19.7,32.6,2.5,112
2010-08-01 16:05:11,31.0,8.9,22.1,32.6,2.3,111
2010-08-01 16:10:11,31.5,9.9,21.6,32.5,2.3,111
2010-08-01 16:15:11,31.3,10.3,21.0,32.5,2.3,112
2010-08-01 16:20:11,31.0,9.7,21.2,32.5,2.3,112
2010-08-01 16:25:11,30.7,9.4,21.3,32.5,2.3,111
2010-08-01 16:30:11,31.0,9.3,21.6,32.6,2.3,111
2010-08-01 16:35:11,31.3,10.5,20.9,32.6,2.3,112
2010-08-01 16:40:11,30.1,10.2,20.0,32.6,2.3,112
2010-08-01 16:45:11,30.9,9.1,21.8,32.6,2.3,111
2010-08-01 16:50:11,31.5,9.4,22.1,32.5,2.3,111
2010-08-01 16:55:11,31.3,9.9,21.5,32.5,2.3,112
2010-08-01 17:00:11,31.0,10.1,20.9,32.5,2.3,111
2010-08-01 17:05:11,30.5,10.1,20.4,32.5,2.4,112
2010-08-01 17:10:11,28.0,9.9,18.0,32.5,2.5,112
2010-08-01 17:15:11,26.0,9.9,16.2,32.5,2.3,111
2010-08-01 17:20:11,25.3,10.1,15.1,32.5,1.9,112
2010-08-01 17:25:11,24.9,9.9,15.0,32.5,1.7,111
2010-08-01 17:30:11,24.7,9.3,15.4,32.5,1.5,112
2010-08-01 17:35:11,24.5,8.1,16.4,32.5,1.5,111
2010-08-01 17:40:11,24.5,6.7,17.9,32.5,1.4,112
2010-08-01 17:45:11,24.6,6.2,18.4,32.5,1.4,111
2010-08-01 17:50:11,24.6,5.8,18.9,32.5,1.4,112
2010-08-01 17:55:11,24.7,5.9,18.9,32.5,1.4,111
2010-08-01 18:00:11,24.7,5.7,19.0,32.5,1.4,112
2010-08-01 18:05:11,24.8,5.5,19.3,32.5,1.4,112
2010-08-01 18:10:11,26.6,5.6,21.0,32.5,1.7,111
2010-08-01 18:15:11,28.8,6.6,22.2,32.5,2.2,112
2010-08-01 18:20:11,29.3,7.8,21.6,32.5,2.3,111
2010-08-01 18:25:11,29.5,8.6,20.9,32.5,2.3,112
2010-08-01 18:30:11,27.9,9.6,18.3,32.4,2.3,111
2010-08-01 18:35:11,25.5,9.9,15.6,32.3,1.7,112
2010-08-01 18:40:11,24.6,9.1,15.5,32.3,1.4,111
2010-08-01 18:45:11,24.2,9.1,15.1,32.3,1.2,111
2010-08-01 18:50:11,23.9,9.1,14.8,32.3,1.0,112
2010-08-01 18:55:11,23.7,9.1,14.6,32.3,0.9,111
2010-08-01 19:00:11,23.6,9.0,14.6,32.3,0.8,111
2010-08-01 19:05:11,23.5,8.9,14.6,32.3,0.8,112
2010-08-01 19:10:11,23.4,9.0,14.4,32.3,0.8,111
2010-08-01 19:15:11,23.4,9.2,14.2,32.3,0.8,111
2010-08-01 19:20:11,23.4,9.2,14.2,32.3,0.9,112
2010-08-01 19:25:11,23.4,9.0,14.4,32.2,0.9,111
2010-08-01 19:30:11,23.4,9.0,14.4,32.2,0.9,112
2010-08-01 19:35:11,23.4,8.5,14.9,32.2,0.9,111
2010-08-01 19:40:11,23.3,7.9,15.4,32.1,1.0,112
2010-08-01 19:45:11,23.3,7.7,15.6,32.1,1.1,111
2010-08-01 19:50:11,23.2,7.5,15.7,32.1,1.6,111
2010-08-01 19:55:11,23.2,7.1,16.1,32.1,1.8,112
2010-08-01 20:00:11,23.1,6.5,16.7,32.1,1.5,111
2010-08-01 20:05:11,23.1,5.6,17.5,32.1,1.3,112
2010-08-01 20:10:11,23.0,5.3,17.7,32.0,1.4,111
2010-08-01 20:15:11,23.0,5.7,17.3,32.0,1.9,112
2010-08-01 20:20:11,22.9,6.4,16.5,32.0,1.9,111
2010-08-01 20:25:11,23.0,6.7,16.3,31.9,1.9,112
2010-08-01 20:30:11,22.9,5.9,17.1,31.7,1.9,112
2010-08-01 20:35:11,22.9,5.8,17.1,31.4,2.0,111
2010-08-01 20:40:11,22.8,5.7,17.1,31.0,2.2,112
2010-08-01 20:45:11,22.7,5.6,17.1,30.4,2.3,112
2010-08-01 20:50:11,22.6,5.0,17.6,29.9,2.3,112
2010-08-01 20:55:11,22.5,4.8,17.7,29.3,2.3,111
2010-08-01 21:00:11,22.4,5.1,17.3,27.6,2.3,112
2010-08-01 21:05:11,22.4,5.4,17.0,24.9,2.3,112
2010-08-01 21:10:11,22.4,5.7,16.7,21.3,2.3,111
2010-08-01 21:15:11,22.3,5.7,16.6,17.3,2.3,112
2010-08-01 21:20:11,22.2,5.4,16.9,13.2,2.2,112
2010-08-01 21:25:11,22.2,5.0,17.2,9.5,2.1,112
2010-08-01 21:30:11,22.1,4.7,17.4,6.5,2.2,111
2010-08-01 21:35:11,22.1,4.6,17.5,4.3,2.3,112
2010-08-01 21:40:11,22.0,4.7,17.3,2.8,2.3,112
2010-08-01 21:45:11,22.0,5.3,16.7,1.8,2.3,112
2010-08-01 21:50:11,22.0,6.0,16.0,1.2,2.3,111
2010-08-01 21:55:11,21.9,5.8,16.2,0.8,2.3,112
2010-08-01 22:00:11,21.9,5.9,16.0,0.5,2.3,112
2010-08-01 22:05:11,21.9,5.6,16.3,0.3,2.3,111
2010-08-01 22:10:11,21.8,5.3,16.6,0.2,2.2,112
2010-08-01 22:15:11,21.8,5.1,16.7,0.2,2.3,112
2010-08-01 22:20:11,21.8,5.1,16.7,0.1,2.3,111
2010-08-01 22:25:11,21.8,5.0,16.7,0.1,2.3,112
2010-08-01 22:30:11,21.8,5.2,16.5,0.1,2.3,112
2010-08-01 22:35:11,21.7,4.8,16.9,0.1,2.3,112
2010-08-01 22:40:11,21.7,3.7,17.9,0.1,2.3,111
2010-08-01 22:45:11,21.5,2.4,19.1,0.0,2.3,112
2010-08-01 22:50:11,21.7,2.0,19.7,0.0,2.3,111
2010-08-01 22:55:11,22.4,1.1,21.2,0.0,2.3,111
2010-08-01 23:00:11,25.1,-0.3,25.4,0.0,2.3,112
2010-08-01 23:05:11,25.8,-1.1,26.9,0.0,2.3,111
2010-08-01 23:10:11,25.6,-0.8,26.4,0.0,2.3,112
2010-08-01 23:15:11,26.2,-0.6,26.8,0.0,2.3,112
2010-08-01 23:20:11,26.1,-1.7,27.8,0.0,2.3,112
2010-08-01 23:25:11,26.1,-3.7,29.7,0.0,2.3,112
2010-08-01 23:30:11,26.0,-5.7,31.7,0.0,2.3,111
2010-08-01 23:35:11,25.9,-5.8,31.7,0.0,2.3,112
2010-08-01 23:40:11,25.8,-5.0,30.8,0.0,2.3,111
2010-08-01 23:45:11,25.8,-4.3,30.1,0.0,2.2,112
2010-08-01 23:50:11,25.7,-3.1,28.9,0.0,2.2,111
2010-08-01 23:55:11,25.7,-1.5,27.3,0.0,2.3,112
